Location: Saint-Palais-sur-Mer
(45.6429°N, 1.0859°W)
Time: 00:07:41
(UTC+01:00)

Tiros 1 despin weight - Pass Details

Date: 15 February 2026
Orbit: 556 x 593 km, 48.2° (Epoch: 13 March)

Event Time Altitude Azimuth Distance (km) Brightness Sun altitude
Rises 17:58:12 0° 246° (WSW) 2,730 ? 4.6°
Reaches altitude 10° 18:00:27 10° 246° (WSW) 1,834 ? 4.2°
Maximum altitude 18:04:38 81° 160° (SSE) 566 ? 3.5°
Drops below altitude 10° 18:08:50 10° 72° (ENE) 1,839 ? 2.8°
Sets 18:11:06 0° 72° (ENE) 2,738 ? 2.5°
